449P/Leonard (2014)

Japanese version
Home page
Updated on November 20, 2022

---------------------------------------------------------------------

* Profile

Designation 449P/2013 Y3

* Orbital Elements

                    Epoch = 2014 Jan. 23.0 TT
     T = 2014 Jan. 14.57774 TT        Peri. = 176.46445
     e = 0.4736222                    Node  = 242.73597 2000.0
     q = 1.9061258 AU                 Incl. =  15.40716
       a =  3.6212125 AU   n = 0.14302865   P =   6.89 years

* Magnitudes Graph

        m1 = 18.0 + 5 log d + 10.0 log r

---------------------------------------------------------------------

The orbital elements are printed on CBET 5173.
The magnitudes graphs are made with Comet for Windows.

---------------------------------------------------------------------

Copyright(C) Seiichi Yoshida (comet@aerith.net). All rights reserved.